Flag for Brazil Weather past 2 weeks in Teófilo Otoni, Minas Gerais, Brazil

Now
70 °F

Clear.


Feels Like: 70 °F
Forecast: 71 / 87 °F
Wind: 10 mph from East

Location: Belo Horizonte Airport

Current Time: Dec 26, 2014 at 8:11:56 AM

Latest Report: Dec 26, 2014 at 7:00 AM


Visibility: 10 mi

Pressure: 30.18 "Hg

Humidity: 69%

Dew point: 59 °F

Location of Teófilo OtoniLocation

Historic Weather in Teófilo Otoni — Graph

°F

Teófilo Otoni temperature yesterday

Maximum temperature yesterday: 86 °F (at 4:00 PM)
Minimum temperature yesterday: 70 °F (at 4:00 AM)
Average temperature yesterday: 77 °F

Past Weeks' High & Low Weather Summary

 TemperatureHumidityPressure
High88 °F (Dec 19, 4:00 PM)100% (Dec 17, 6:00 AM)30.18 "Hg (Dec 17, 6:00 AM)
Low61 °F (Dec 17, 6:00 AM)29% (Dec 17, 5:00 PM)29.86 "Hg (Dec 13, 5:00 PM)
Average75 °F68%30.02 "Hg
* Reported Dec 11 7:00 AM — Dec 26 7:00 AM, Teófilo Otoni, Weather by CustomWeather, © 2014

Note: Actual official high and low records may vary slightly from our data, if they occured in-between our weather recording intervals... More about our weather records

Advertising

Teófilo Otoni weather history for previous 24 hours

 ConditionsComfort  
Time TempWeatherWind HumidityBarometerVisibility
7:00 AM
Dec 26
70 °FClear.10 mph69%30.18 "Hg10 mi
6:00 AM70 °FClear.13 mph69%30.15 "Hg10 mi
5:00 AM70 °FClear.6 mph69%30.15 "Hg10 mi
4:00 AM70 °FClear.7 mph69%30.15 "Hg10 mi
3:00 AM68 °FClear.8 mph78%30.15 "Hg10 mi
2:00 AM70 °FClear.8 mph73%30.15 "Hg10 mi
1:00 AM73 °FClear.8 mph57%30.15 "Hg10 mi
12:00 AM73 °FClear.8 mph61%30.18 "Hg10 mi
11:00 PM
Dec 25
75 °FClear.9 mph57%30.18 "Hg10 mi
10:00 PM77 °FClear.9 mph100%30.15 "Hg10 mi
9:00 PM79 °FClear.10 mph48%30.12 "Hg10 mi
8:00 PM81 °FSunny.12 mph45%30.12 "Hg10 mi
7:00 PM84 °FSunny.12 mph40%30.09 "Hg10 mi
6:00 PM75 °FPassing clouds.14 mph54%30.07 "HgN/A
5:00 PM86 °FPassing clouds.10 mph35%30.09 "HgN/A
4:00 PM86 °FPassing clouds.9 mph38%30.12 "HgN/A
3:00 PM84 °FPassing clouds.9 mph40%30.12 "HgN/A
2:00 PM82 °FScattered clouds.9 mph42%30.15 "HgN/A
1:00 PM82 °FScattered clouds.12 mph51%30.15 "HgN/A
12:00 PM79 °FScattered clouds.8 mph58%30.18 "HgN/A
11:00 AM79 °FScattered clouds.6 mph54%30.18 "HgN/A
10:00 AM75 °FPassing clouds.6 mph61%30.18 "HgN/A
9:00 AM75 °FSunny.9 mph61%30.15 "Hg10 mi
8:00 AM72 °FSunny.9 mph65%30.15 "Hg10 mi
Weather by CustomWeather, © 2014

See weather overviewHow to use our weather pages